Time,TemperatureF,DewpointF,PressureIn,WindDirection,WindDirectionDegrees,WindSpeedMPH,WindSpeedGustMPH,Humidity,HourlyPrecipIn,Conditions,Clouds,dailyrainin,SoftwareType,DateUTC
2013-09-11 00:14:00,71.0,70.0,30.30,NNE,27,0.0,1.0,96,0.00,,,0.09,,2013-09-11 04:14:00,
2013-09-11 00:24:00,71.0,70.0,30.30,NNE,27,0.0,0.0,96,0.00,,,0.09,,2013-09-11 04:24:00,
2013-09-11 00:44:00,71.0,70.0,30.30,NNE,27,0.0,0.0,96,0.00,,,0.09,,2013-09-11 04:44:00,
2013-09-11 00:54:00,71.0,70.0,30.30,East,84,0.0,2.0,96,0.00,,,0.09,,2013-09-11 04:54:00,
2013-09-11 01:13:00,71.0,70.0,30.29,East,83,0.0,2.0,96,0.00,,,0.09,,2013-09-11 05:13:00,
2013-09-11 01:23:00,71.0,70.0,30.29,East,83,0.0,0.0,96,0.00,,,0.09,,2013-09-11 05:23:00,
2013-09-11 01:53:00,70.0,69.0,30.29,North,349,0.0,1.0,97,0.00,,,0.09,,2013-09-11 05:53:00,
2013-09-11 02:12:00,70.0,69.0,30.29,NNE,16,0.0,1.0,97,0.00,,,0.09,,2013-09-11 06:12:00,
2013-09-11 02:22:00,70.0,69.0,30.28,SW,232,1.0,7.0,97,0.00,,,0.09,,2013-09-11 06:22:00,
2013-09-11 02:42:00,70.0,69.0,30.28,NNE,30,0.0,3.0,97,0.00,,,0.09,,2013-09-11 06:42:00,
2013-09-11 02:52:00,70.0,69.0,30.28,ENE,72,0.0,1.0,97,0.00,,,0.09,,2013-09-11 06:52:00,
2013-09-11 03:12:00,70.0,69.0,30.28,East,94,0.0,2.0,97,0.00,,,0.09,,2013-09-11 07:12:00,
2013-09-11 03:24:00,70.0,69.0,30.28,NE,55,0.0,1.0,97,0.00,,,0.09,,2013-09-11 07:24:00,
2013-09-11 03:53:00,69.0,68.0,30.28,NE,56,0.0,0.0,98,0.00,,,0.09,,2013-09-11 07:53:00,
2013-09-11 04:12:00,69.0,68.0,30.28,ENE,57,0.0,0.0,98,0.00,,,0.09,,2013-09-11 08:12:00,
2013-09-11 04:22:00,69.0,68.0,30.27,ENE,57,0.0,0.0,98,0.00,,,0.09,,2013-09-11 08:22:00,
2013-09-11 04:42:00,69.0,68.0,30.27,NE,56,0.0,1.0,98,0.00,,,0.09,,2013-09-11 08:42:00,
2013-09-11 04:52:00,69.0,68.0,30.27,NNE,25,0.0,1.0,98,0.00,,,0.09,,2013-09-11 08:52:00,
2013-09-11 05:12:00,69.0,68.0,30.27,NNE,25,0.0,0.0,98,0.00,,,0.09,,2013-09-11 09:12:00,
2013-09-11 05:22:00,69.0,68.0,30.27,NNE,16,0.0,1.0,98,0.00,,,0.09,,2013-09-11 09:22:00,
2013-09-11 05:43:00,69.0,69.0,30.27,NNE,16,0.0,0.0,99,0.00,,,0.09,,2013-09-11 09:43:00,
2013-09-11 05:53:00,69.0,69.0,30.27,West,278,0.0,0.0,99,0.00,,,0.09,,2013-09-11 09:53:00,
2013-09-11 06:13:00,69.0,69.0,30.27,West,278,0.0,0.0,99,0.00,,,0.09,,2013-09-11 10:13:00,
2013-09-11 06:23:00,69.0,69.0,30.27,West,278,0.0,0.0,99,0.00,,,0.09,,2013-09-11 10:23:00,
2013-09-11 06:43:00,69.0,69.0,30.28,NE,46,0.0,1.0,99,0.00,,,0.09,,2013-09-11 10:43:00,
2013-09-11 06:53:00,69.0,69.0,30.28,NE,46,0.0,0.0,99,0.00,,,0.09,,2013-09-11 10:53:00,
2013-09-11 07:12:00,69.0,69.0,30.29,NE,47,0.0,0.0,99,0.00,,,0.09,,2013-09-11 11:12:00,
2013-09-11 07:22:00,69.0,69.0,30.29,NE,46,0.0,0.0,99,0.00,,,0.09,,2013-09-11 11:22:00,
2013-09-11 07:52:00,69.0,69.0,30.29,NE,46,0.0,0.0,99,0.00,,,0.09,,2013-09-11 11:52:00,
2013-09-11 08:11:00,69.0,69.0,30.29,NE,46,0.0,0.0,99,0.00,,,0.09,,2013-09-11 12:11:00,
2013-09-11 08:21:00,70.0,70.0,30.29,NE,46,0.0,0.0,99,0.00,,,0.09,,2013-09-11 12:21:00,
2013-09-11 08:52:00,71.0,71.0,30.28,NE,45,0.0,1.0,99,0.00,,,0.09,,2013-09-11 12:52:00,
2013-09-11 09:12:00,72.0,72.0,30.28,East,87,0.0,1.0,100,0.00,,,0.09,,2013-09-11 13:12:00,
2013-09-11 09:22:00,73.0,73.0,30.29,NE,46,0.0,1.0,99,0.00,,,0.09,,2013-09-11 13:22:00,
2013-09-11 09:42:00,74.0,74.0,30.29,East,92,0.0,1.0,99,0.00,,,0.09,,2013-09-11 13:42:00,
2013-09-11 09:52:00,76.0,75.0,30.28,East,94,0.0,1.0,97,0.00,,,0.09,,2013-09-11 13:52:00,
2013-09-11 10:11:00,77.0,75.0,30.28,East,94,0.0,1.0,94,0.00,,,0.09,,2013-09-11 14:11:00,
2013-09-11 10:22:00,79.0,76.0,30.27,East,98,0.0,0.0,90,0.00,,,0.09,,2013-09-11 14:22:00,
2013-09-11 10:52:00,82.0,78.0,30.27,SW,226,0.0,1.0,87,0.00,,,0.09,,2013-09-11 14:52:00,
2013-09-11 11:22:00,85.0,79.0,30.26,West,263,1.0,3.0,82,0.00,,,0.09,,2013-09-11 15:22:00,
2013-09-11 11:43:00,86.0,79.0,30.26,WNW,294,0.0,2.0,80,0.00,,,0.09,,2013-09-11 15:43:00,
2013-09-11 11:54:00,87.0,78.0,30.25,WSW,249,1.0,2.0,75,0.00,,,0.09,,2013-09-11 15:54:00,
2013-09-11 12:13:00,88.0,79.0,30.25,WNW,296,1.0,2.0,76,0.00,,,0.09,,2013-09-11 16:13:00,
2013-09-11 12:23:00,89.0,78.0,30.25,West,262,1.0,2.0,70,0.00,,,0.06,,2013-09-11 16:23:00,
2013-09-11 12:53:00,90.0,78.0,30.24,West,271,1.0,3.0,68,0.00,,,0.00,,2013-09-11 16:53:00,
2013-09-11 13:12:00,91.0,77.0,30.24,West,266,0.0,3.0,63,0.00,,,0.00,,2013-09-11 17:12:00,
2013-09-11 13:23:00,92.0,78.0,30.24,NNE,33,0.0,2.0,63,0.00,,,0.00,,2013-09-11 17:23:00,
2013-09-11 13:52:00,93.0,77.0,30.22,NE,51,0.0,2.0,59,0.00,,,0.00,,2013-09-11 17:52:00,
2013-09-11 14:12:00,93.0,77.0,30.21,West,271,1.0,3.0,60,0.00,,,0.00,,2013-09-11 18:12:00,
2013-09-11 14:22:00,93.0,78.0,30.21,West,269,1.0,3.0,62,0.00,,,0.00,,2013-09-11 18:22:00,
2013-09-11 14:52:00,93.0,77.0,30.20,West,262,1.0,5.0,59,0.00,,,0.00,,2013-09-11 18:52:00,
2013-09-11 15:12:00,93.0,77.0,30.20,West,275,0.0,3.0,60,0.00,,,0.00,,2013-09-11 19:12:00,
2013-09-11 15:22:00,93.0,77.0,30.19,West,271,0.0,3.0,60,0.00,,,0.00,,2013-09-11 19:22:00,
2013-09-11 15:53:00,93.0,76.0,30.19,NE,51,0.0,3.0,58,0.00,,,0.00,,2013-09-11 19:53:00,
2013-09-11 16:12:00,93.0,75.0,30.18,East,86,0.0,7.0,57,0.00,,,0.00,,2013-09-11 20:12:00,
2013-09-11 16:22:00,92.0,77.0,30.18,SW,229,1.0,5.0,62,0.00,,,0.00,,2013-09-11 20:22:00,
2013-09-11 16:52:00,90.0,75.0,30.17,WNW,288,0.0,2.0,62,0.00,,,0.00,,2013-09-11 20:52:00,
2013-09-11 17:12:00,90.0,76.0,30.16,ENE,70,0.0,1.0,64,0.00,,,0.00,,2013-09-11 21:12:00,
2013-09-11 17:22:00,89.0,76.0,30.16,West,262,0.0,1.0,65,0.00,,,0.00,,2013-09-11 21:22:00,
2013-09-11 17:44:00,89.0,76.0,30.16,SW,235,0.0,3.0,66,0.00,,,0.00,,2013-09-11 21:44:00,
2013-09-11 17:54:00,89.0,76.0,30.15,SW,235,0.0,0.0,66,0.00,,,0.00,,2013-09-11 21:54:00,
2013-09-11 18:13:00,88.0,74.0,30.15,East,85,0.0,3.0,64,0.00,,,0.00,,2013-09-11 22:13:00,
2013-09-11 18:24:00,87.0,74.0,30.15,East,80,0.0,0.0,65,0.00,,,0.00,,2013-09-11 22:24:00,
2013-09-11 18:54:00,86.0,74.0,30.15,ENE,77,0.0,1.0,67,0.00,,,0.00,,2013-09-11 22:54:00,
2013-09-11 19:12:00,85.0,74.0,30.15,ENE,78,0.0,1.0,69,0.00,,,0.00,,2013-09-11 23:12:00,
2013-09-11 19:22:00,84.0,73.0,30.16,ENE,72,0.0,1.0,70,0.00,,,0.00,,2013-09-11 23:22:00,
2013-09-11 19:53:00,83.0,74.0,30.17,ENE,73,0.0,0.0,74,0.00,,,0.00,,2013-09-11 23:53:00,
2013-09-11 20:11:00,83.0,74.0,30.17,ENE,73,0.0,0.0,75,0.00,,,0.00,,2013-09-12 00:11:00,
2013-09-11 20:22:00,83.0,75.0,30.17,ENE,73,0.0,0.0,76,0.00,,,0.00,,2013-09-12 00:22:00,
2013-09-11 20:42:00,83.0,75.0,30.18,ESE,104,1.0,2.0,77,0.00,,,0.00,,2013-09-12 00:42:00,
2013-09-11 20:52:00,83.0,75.0,30.18,ESE,117,0.0,3.0,77,0.00,,,0.00,,2013-09-12 00:52:00,
2013-09-11 21:11:00,83.0,75.0,30.18,ENE,78,0.0,2.0,78,0.00,,,0.00,,2013-09-12 01:11:00,
2013-09-11 21:22:00,83.0,76.0,30.17,East,82,0.0,1.0,80,0.00,,,0.00,,2013-09-12 01:22:00,
2013-09-11 21:42:00,83.0,77.0,30.17,SSE,160,0.0,3.0,81,0.00,,,0.00,,2013-09-12 01:42:00,
2013-09-11 21:52:00,83.0,77.0,30.17,NNW,346,1.0,2.0,81,0.00,,,0.00,,2013-09-12 01:52:00,
2013-09-11 22:12:00,83.0,77.0,30.17,NNW,333,1.0,3.0,82,0.00,,,0.00,,2013-09-12 02:12:00,
2013-09-11 22:22:00,82.0,77.0,30.17,SSE,162,0.0,3.0,84,0.00,,,0.00,,2013-09-12 02:22:00,
2013-09-11 23:11:00,80.0,72.0,30.23,West,281,1.0,7.0,78,0.00,,,0.00,,2013-09-12 03:11:00,
2013-09-11 23:22:00,74.0,72.0,30.23,WNW,291,0.0,3.0,92,0.03,,,0.03,,2013-09-12 03:22:00,